Simultaneous Nadir Overpasses (SNOs) Predictions

Prediction of SNOs between GOES-15 and METOP-B Satellite Orbit:

Table of predicted SNOs for the next 14.0 days since TLE Epoch: 12/5/2020
Index Date Time (GOES-15) GOES-15 Lat,Lon METOP-B Lat,Lon Distance(km) Time Diff (sec)
1 12/06/2020 18:03:47 0.24,-128.05 0.23,-128.01 3.83 80
2 12/09/2020 06:02:08 -0.23,-128.11 -0.15,-127.61 56.79 80
3 12/10/2020 18:18:21 0.22,-128.12 1.10,-132.19 462.68 80
4 12/11/2020 18:00:22 0.23,-128.13 -0.00,-127.19 108.27 80
5 12/13/2020 06:16:42 -0.21,-128.17 -1.02,-131.78 411.67 80
6 12/14/2020 05:58:43 -0.23,-128.18 0.08,-126.79 159.04 80
7 12/15/2020 18:14:55 0.21,-128.18 0.92,-131.35 361.36 80
8 12/16/2020 17:56:56 0.23,-128.19 -0.18,-126.35 209.03 80
9 12/18/2020 06:13:16 -0.21,-128.21 -0.84,-130.95 311.82 80
